Вернуться в каталог

METEOSAT 1

АктивенПогодаGEO
NORAD 10489·PAYLOAD·🇪🇺 EU

Запущен Nov 23, 1977 с Cape Canaveral Space Force Station

Loading…

TLE

СвежийSource: Space-Track

Эпоха: Sep 14, 2026, 14:03 UTC

1 10489U 77108A   26257.58584772  .00000062  00000-0  00000-0 0  9991
2 10489   4.8570 280.1742 0007444  99.1725 239.3802  1.00375689138103

Отслеживайте METEOSAT 1 в реальном времени с AllMySat

Download on the App Store